Location: Nordegg
(52.4712°N, 116.0743°W)
Time: 14:54:00
(UTC+00:00)

Envisat - Pass Details

Date: 30 November 2021
Orbit: 764 x 766 km, 98.2° (Epoch: 26 January)

Event Time Altitude Azimuth Distance (km) Brightness Sun altitude
Rises 12:59:12 0° 14° (NNE) 3,248 6.3 -22.1°
Reaches altitude 10° 13:01:31 10° 15° (NNE) 2,317 5.6 -21.8°
Maximum altitude 13:06:39 86° 105° (ESE) 776 3.0 -21.0°
Drops below altitude 10° 13:11:44 10° 195° (SSW) 2,299 5.4 -20.3°
Sets 13:14:01 0° 196° (SSW) 3,221 6.2 -19.9°
